Radiation Dose at Monitoring Post of Fukushima Daini Nuclear Power Station
Date,Time,MP-1(microSv/h),MP-2(microSv/h),MP-3(microSv/h),MP-4(microSv/h),MP-5(microSv/h),MP-6(microSv/h),MP-7(microSv/h),Wind Direction,Wind Velocity(m/s),Rain
2016/07/23,00:00,0.425,0.251,0.434,0.397,0.377,0.204,0.174,north,5.8,Yes
2016/07/23,00:10,0.423,0.252,0.437,0.400,0.373,0.203,0.177,north,4.9,No
2016/07/23,00:20,0.424,0.251,0.435,0.398,0.375,0.204,0.175,north,6.4,No
2016/07/23,00:30,0.426,0.250,0.435,0.401,0.376,0.202,0.176,north,6.4,No
2016/07/23,00:40,0.423,0.252,0.435,0.399,0.373,0.206,0.175,north,6.3,No
2016/07/23,00:50,0.425,0.250,0.434,0.397,0.376,0.204,0.176,north,6.1,No
2016/07/23,01:00,0.423,0.252,0.438,0.400,0.374,0.204,0.176,north,5.8,No
2016/07/23,01:10,0.424,0.251,0.433,0.398,0.377,0.204,0.175,north,6.1,No
2016/07/23,01:20,0.425,0.251,0.438,0.401,0.373,0.204,0.177,north,6.4,No
2016/07/23,01:30,0.424,0.250,0.436,0.398,0.377,0.203,0.175,north,5.9,No
2016/07/23,01:40,0.425,0.249,0.435,0.400,0.375,0.203,0.177,north,6.1,No
2016/07/23,01:50,0.423,0.252,0.436,0.398,0.376,0.205,0.176,north,6.8,No
2016/07/23,02:00,0.426,0.250,0.436,0.397,0.375,0.204,0.175,north,6.8,No
2016/07/23,02:10,0.423,0.253,0.438,0.400,0.375,0.204,0.175,north,6.7,No
2016/07/23,02:20,0.427,0.250,0.435,0.398,0.378,0.205,0.175,north,5.6,No
2016/07/23,02:30,0.422,0.252,0.437,0.401,0.373,0.203,0.177,north,6.4,No
2016/07/23,02:40,0.425,0.251,0.434,0.397,0.378,0.205,0.175,north,6.3,No
2016/07/23,02:50,0.425,0.250,0.436,0.400,0.372,0.203,0.177,north,6.4,No
2016/07/23,03:00,0.425,0.251,0.437,0.399,0.377,0.204,0.175,north,5.6,No
2016/07/23,03:10,0.425,0.249,0.435,0.400,0.373,0.203,0.176,north,5.8,No
2016/07/23,03:20,0.423,0.252,0.436,0.400,0.377,0.204,0.176,north,5.8,No
2016/07/23,03:30,0.425,0.250,0.434,0.398,0.374,0.203,0.176,north,6.0,No
2016/07/23,03:40,0.424,0.252,0.437,0.401,0.375,0.204,0.176,north,5.6,No
2016/07/23,03:50,0.425,0.251,0.436,0.397,0.376,0.206,0.176,north,6.1,No
2016/07/23,04:00,0.422,0.251,0.436,0.399,0.374,0.204,0.176,north,6.4,No
2016/07/23,04:10,0.424,0.252,0.437,0.400,0.376,0.205,0.176,north,6.6,No
2016/07/23,04:20,0.426,0.250,0.434,0.399,0.373,0.205,0.175,north,6.1,No
2016/07/23,04:30,0.424,0.252,0.437,0.400,0.377,0.203,0.176,north,6.6,No
2016/07/23,04:40,0.425,0.250,0.434,0.398,0.373,0.204,0.175,north,6.4,No
2016/07/23,04:50,0.422,0.252,0.436,0.399,0.376,0.203,0.177,north,6.4,No
2016/07/23,05:00,0.425,0.249,0.434,0.398,0.375,0.205,0.175,north,6.5,No
2016/07/23,05:10,0.423,0.252,0.436,0.399,0.376,0.205,0.175,north,5.9,No
2016/07/23,05:20,0.426,0.250,0.437,0.398,0.375,0.204,0.174,north,7.0,Yes
2016/07/23,05:30,0.423,0.250,0.437,0.399,0.375,0.204,0.175,north,6.4,Yes
2016/07/23,05:40,0.426,0.252,0.438,0.400,0.376,0.203,0.176,north,6.7,Yes
2016/07/23,05:50,0.425,0.250,0.434,0.400,0.376,0.205,0.176,north,6.3,Yes
2016/07/23,06:00,0.425,0.252,0.439,0.400,0.376,0.204,0.176,north,6.1,Yes
2016/07/23,06:10,0.424,0.250,0.435,0.397,0.372,0.204,0.175,north,6.0,Yes
2016/07/23,06:20,0.424,0.252,0.438,0.402,0.377,0.205,0.176,north,6.3,No
2016/07/23,06:30,0.424,0.249,0.435,0.398,0.374,0.204,0.176,north,5.9,No
2016/07/23,06:40,0.421,0.251,0.436,0.400,0.378,0.204,0.177,north,5.6,No
2016/07/23,06:50,0.427,0.252,0.435,0.399,0.375,0.204,0.175,north,6.4,No
2016/07/23,07:00,0.422,0.249,0.434,0.398,0.376,0.203,0.177,north,5.6,No
2016/07/23,07:10,0.424,0.251,0.437,0.402,0.375,0.204,0.176,north,6.5,No
2016/07/23,07:20,0.424,0.250,0.433,0.396,0.374,0.203,0.176,north,6.7,No
2016/07/23,07:30,0.422,0.251,0.438,0.399,0.377,0.204,0.177,north,6.1,No
2016/07/23,07:40,0.425,0.251,0.436,0.400,0.372,0.204,0.175,north,5.5,No
2016/07/23,07:50,0.423,0.250,0.434,0.397,0.377,0.203,0.176,north,5.5,No
2016/07/23,08:00,0.427,0.253,0.438,0.400,0.375,0.205,0.176,north,5.3,No
2016/07/23,08:10,0.422,0.249,0.434,0.397,0.373,0.204,0.174,north,6.7,No
2016/07/23,08:20,0.423,0.252,0.436,0.400,0.377,0.205,0.176,north,6.9,No
2016/07/23,08:30,0.426,0.251,0.436,0.400,0.373,0.204,0.175,north,6.7,No
2016/07/23,08:40,0.420,0.250,0.434,0.397,0.377,0.203,0.175,north,7.2,No
2016/07/23,08:50,0.425,0.251,0.440,0.401,0.374,0.204,0.176,north,6.7,No
2016/07/23,09:00,0.423,0.250,0.435,0.397,0.371,0.204,0.175,north,6.8,No
2016/07/23,09:10,0.425,0.250,0.434,0.398,0.375,0.204,0.175,north,7.5,No
2016/07/23,09:20,0.425,0.252,0.437,0.401,0.372,0.203,0.177,north,6.7,Yes
2016/07/23,09:30,0.422,0.250,0.434,0.398,0.374,0.204,0.175,north,6.7,No
2016/07/23,09:40,0.427,0.252,0.437,0.399,0.376,0.203,0.176,north,7.3,No
2016/07/23,09:50,0.425,0.250,0.437,0.401,0.373,0.204,0.177,north,6.1,No
2016/07/23,10:00,0.423,0.250,0.433,0.397,0.373,0.203,0.175,north,5.6,No
2016/07/23,10:10,0.426,0.252,0.435,0.397,0.376,0.204,0.175,north,6.0,No
2016/07/23,10:20,0.424,0.250,0.438,0.401,0.374,0.204,0.176,north,5.3,No
2016/07/23,10:30,0.422,0.249,0.433,0.398,0.372,0.204,0.176,north,4.7,No
2016/07/23,10:40,0.426,0.251,0.435,0.396,0.377,0.203,0.175,north,4.5,No
2016/07/23,10:50,0.421,0.249,0.437,0.400,0.375,0.204,0.174,north,6.9,No
2016/07/23,11:00,0.425,0.250,0.434,0.400,0.372,0.205,0.176,north-northeast,7.5,No
2016/07/23,11:10,0.426,0.250,0.435,0.396,0.377,0.204,0.175,north,5.9,No
2016/07/23,11:20,0.423,0.251,0.439,0.401,0.375,0.203,0.175,north-northeast,7.5,No
2016/07/23,11:30,0.423,0.251,0.435,0.401,0.372,0.204,0.174,north-northeast,8.8,No
2016/07/23,11:40,0.426,0.250,0.432,0.398,0.370,0.205,0.175,north,6.7,No
2016/07/23,11:50,0.424,0.251,0.434,0.397,0.372,0.205,0.176,north-northeast,6.4,No
2016/07/23,12:00,0.421,0.251,0.440,0.395,0.378,0.205,0.177,north-northeast,7.1,No
2016/07/23,12:10,0.425,0.250,0.438,0.398,0.376,0.203,0.175,north-northeast,7.3,No
2016/07/23,12:20,0.426,0.250,0.434,0.402,0.371,0.203,0.175,north-northeast,7.5,No
2016/07/23,12:30,0.423,0.252,0.432,0.401,0.372,0.204,0.174,north-northeast,8.0,No
2016/07/23,12:40,0.425,0.252,0.439,0.396,0.375,0.204,0.176,north-northeast,7.4,No
2016/07/23,12:50,0.424,0.250,0.439,0.396,0.378,0.204,0.176,north,6.3,No
2016/07/23,13:00,0.422,0.252,0.434,0.402,0.375,0.205,0.175,north,5.4,No
2016/07/23,13:10,0.426,0.250,0.440,0.400,0.372,0.204,0.177,north-northeast,6.7,No
2016/07/23,13:20,0.426,0.250,0.438,0.397,0.378,0.205,0.176,north,6.4,No
2016/07/23,13:30,0.424,0.252,0.435,0.401,0.375,0.204,0.175,north,5.2,No
2016/07/23,13:40,0.426,0.251,0.436,0.402,0.373,0.204,0.176,north,5.8,No
2016/07/23,13:50,0.425,0.250,0.441,0.400,0.378,0.202,0.176,north,7.0,No
2016/07/23,14:00,0.421,0.252,0.437,0.398,0.377,0.205,0.177,north,6.1,No
2016/07/23,14:10,0.427,0.250,0.435,0.402,0.375,0.205,0.176,north,5.4,No
2016/07/23,14:20,0.426,0.250,0.439,0.398,0.374,0.203,0.175,north,5.0,No
2016/07/23,14:30,0.421,0.251,0.436,0.398,0.377,0.203,0.176,north,4.7,No
2016/07/23,14:40,0.427,0.252,0.434,0.400,0.375,0.204,0.177,north-northeast,5.1,No
2016/07/23,14:50,0.426,0.249,0.438,0.400,0.374,0.204,0.175,north,5.6,No
2016/07/23,15:00,0.421,0.251,0.435,0.398,0.377,0.203,0.177,north,7.0,No
2016/07/23,15:10,0.425,0.253,0.433,0.400,0.376,0.203,0.176,north-northeast,8.9,No
2016/07/23,15:20,0.425,0.250,0.440,0.401,0.372,0.205,0.176,north-northeast,7.4,No
2016/07/23,15:30,0.423,0.251,0.439,0.399,0.376,0.205,0.174,north-northeast,6.9,No
2016/07/23,15:40,0.426,0.252,0.436,0.398,0.377,0.203,0.176,north,7.0,No
2016/07/23,15:50,0.427,0.249,0.435,0.400,0.374,0.203,0.177,north,6.8,No
2016/07/23,16:00,0.422,0.250,0.440,0.403,0.374,0.205,0.176,north,7.6,No
2016/07/23,16:10,0.423,0.252,0.436,0.397,0.376,0.204,0.176,north-northeast,7.3,No
2016/07/23,16:20,0.427,0.250,0.434,0.399,0.375,0.204,0.176,north-northeast,6.0,No
2016/07/23,16:30,0.421,0.251,0.438,0.403,0.374,0.205,0.176,north,6.0,No
2016/07/23,16:40,0.427,0.252,0.438,0.398,0.377,0.203,0.175,north,6.4,No
2016/07/23,16:50,0.426,0.250,0.435,0.400,0.374,0.205,0.176,north,4.9,No
2016/07/23,17:00,0.423,0.253,0.439,0.402,0.376,0.204,0.176,north,5.3,No
2016/07/23,17:10,0.425,0.252,0.436,0.397,0.376,0.204,0.176,north,4.5,No
2016/07/23,17:20,0.424,0.250,0.436,0.399,0.373,0.204,0.176,north,6.5,No
2016/07/23,17:30,0.424,0.252,0.441,0.402,0.377,0.204,0.175,north,5.8,No
2016/07/23,17:40,0.427,0.251,0.435,0.397,0.376,0.205,0.176,north,4.7,No
2016/07/23,17:50,0.424,0.251,0.435,0.399,0.372,0.204,0.177,north,4.9,No
2016/07/23,18:00,0.425,0.252,0.440,0.401,0.377,0.203,0.176,north,5.1,No
2016/07/23,18:10,0.426,0.250,0.437,0.398,0.376,0.204,0.175,north,4.4,Yes
2016/07/23,18:20,0.424,0.252,0.437,0.400,0.374,0.204,0.176,north,5.3,No
2016/07/23,18:30,0.426,0.251,0.437,0.400,0.378,0.204,0.175,north,4.2,No
2016/07/23,18:40,0.425,0.250,0.434,0.397,0.374,0.205,0.176,north,5.0,No
2016/07/23,18:50,0.422,0.253,0.438,0.402,0.376,0.205,0.176,north,4.9,No
2016/07/23,19:00,0.427,0.250,0.439,0.398,0.375,0.204,0.176,north,4.2,No
2016/07/23,19:10,0.424,0.252,0.436,0.401,0.374,0.203,0.176,north,4.2,No
2016/07/23,19:20,0.425,0.252,0.439,0.402,0.377,0.206,0.175,north,5.0,No
2016/07/23,19:30,0.425,0.251,0.436,0.398,0.373,0.203,0.176,north,4.5,No
2016/07/23,19:40,0.424,0.253,0.437,0.402,0.377,0.205,0.176,north,4.8,No
2016/07/23,19:50,0.428,0.250,0.439,0.401,0.375,0.204,0.175,north,6.0,No
2016/07/23,20:00,0.425,0.251,0.435,0.398,0.375,0.203,0.177,north,6.1,No
2016/07/23,20:10,0.425,0.251,0.440,0.403,0.376,0.205,0.175,north,5.3,No
2016/07/23,20:20,0.426,0.251,0.437,0.398,0.373,0.203,0.176,north,6.1,No
2016/07/23,20:30,0.422,0.252,0.438,0.400,0.379,0.204,0.177,north,6.6,No
2016/07/23,20:40,0.427,0.251,0.439,0.402,0.375,0.205,0.175,north,4.2,No
2016/07/23,20:50,0.427,0.253,0.435,0.397,0.376,0.203,0.176,north,5.0,No
2016/07/23,21:00,0.424,0.252,0.440,0.402,0.376,0.205,0.176,north,5.1,No
2016/07/23,21:10,0.427,0.250,0.438,0.397,0.373,0.204,0.176,north,4.8,No
2016/07/23,21:20,0.424,0.252,0.435,0.401,0.377,0.203,0.176,north,7.1,No
2016/07/23,21:30,0.428,0.250,0.439,0.401,0.374,0.204,0.175,north,5.8,No
2016/07/23,21:40,0.425,0.252,0.436,0.399,0.375,0.203,0.176,north,6.2,No
2016/07/23,21:50,0.425,0.252,0.439,0.402,0.375,0.205,0.177,north,5.9,No
2016/07/23,22:00,-,-,-,-,-,-,-,-,-,-
2016/07/23,22:10,0.424,0.253,0.435,0.400,0.377,0.204,0.177,north,6.6,No
2016/07/23,22:20,0.426,0.250,0.440,0.402,0.373,0.205,0.175,north,6.7,No
2016/07/23,22:30,0.423,0.252,0.434,0.398,0.377,0.204,0.176,north,6.4,No
2016/07/23,22:40,0.428,0.252,0.439,0.401,0.374,0.206,0.175,north,7.1,No
2016/07/23,22:50,-,-,-,-,-,-,-,-,-,-
2016/07/23,23:00,0.423,0.252,0.437,0.402,0.375,0.205,0.177,north,7.7,No
2016/07/23,23:10,-,-,-,-,-,-,-,-,-,-
2016/07/23,23:20,0.423,0.252,0.435,0.399,0.377,0.203,0.177,north,6.7,No
2016/07/23,23:30,0.426,0.251,0.438,0.402,0.374,0.205,0.176,north,6.8,Yes
2016/07/23,23:40,0.423,0.252,0.436,0.398,0.378,0.204,0.176,north,7.3,Yes
2016/07/23,23:50,0.425,0.253,0.438,0.402,0.373,0.205,0.176,north,7.3,Yes
